[[{"header":{"parameterUnit":"m.s-1","parameterCategory":1,"la1":30.2991,"la2":30.254,"lo1":-89.0895,"lo2":-89.0444,"dy":0.0017,"dx":0.0017,"nx":28,"ny":28,"refTime":"2025-04-04T21:00:00:Z","depth":0,"parameterNumber":2,"parameterNumberName":"U-component_of_WINDS"},"data":[0,0,0,0,0,0,0,0,0,0,0,0,0,0,0,0,0,0,0,0,0,0,0,0,0,0,0,0,0,0,0,0,0,0,0,0,0,0,0,0,0,0,0,0,0,0,0,0,0,0,0,0,0,0,0,0,0,0,0.9076,0.9076,0,0.9099,0.9099,0.9099,0.9053,0.9052,0.905,0.9049,0.9072,0.9074,0.9076,0,0,0,0,0,0,0,0,0,0,0,0,0,0.8991,0.8993,0.9076,0.9076,0.9076,0.9099,0.9099,0.9099,0.9053,0.9052,0.905,0.9048,0.9072,0.9074,0.9076,0,0,0,0,0,0,0,0,0,0,0,0,0,0.9022,0.8993,0.9076,0.9056,0.9055,0.9099,0.9099,0.9099,0.9054,0.9052,0.9049,0.9047,0.9071,0.9074,0.9077,0.9141,0,0,0.9086,0.9087,0,0,0,0,0,0,0,0,0.9021,0.9026,0.9059,0.9058,0.9056,0.9071,0.9078,0.9113,0.9054,0.9054,0.9049,0.9046,0.9074,0.9076,0.9086,0.9142,0.9143,0.9086,0.9088,0.909,0.909,0,0,0,0,0,0,0,0.9019,0.9024,0.9085,0.9059,0.9058,0.9046,0.9048,0.9084,0.9076,0.9054,0.9051,0.9054,0.9072,0.9083,0.9086,0.9143,0.9086,0.9089,0.9091,0.9092,0.9252,0.9254,0,0,0,0,0,0,0.9019,0.9023,0.9084,0.9086,0.9032,0.9049,0.9051,0.9068,0.9076,0.9075,0.9056,0.9052,0.9079,0.9082,0.9086,0.9161,0.9089,0.9092,0.9094,0.9249,0.9252,0.9255,0,0,0,0,0,0,0.9017,0.9025,0.9083,0.9053,0.906,0.9053,0.9072,0.907,0.908,0.9077,0.9076,0.9068,0.9077,0.9082,0.9127,0.9161,0.9094,0.9096,0.9247,0.925,0.9254,0.9311,0,0,0,0,0,0,0.9015,0.9025,0.9049,0.9054,0.9062,0.9124,0.9075,0.9072,0.9086,0.908,0.9088,0.9087,0.9076,0.9123,0.913,0.9164,0.9099,0.9243,0.9248,0.9252,0.9306,0.9317,0.9325,0,0,0,0,0,0.9012,0.9065,0.9051,0.9058,0.9092,0.9126,0.9131,0.9116,0.9089,0.9113,0.9111,0.9087,0.9156,0.9128,0.9136,0.9171,0.9241,0.9247,0.9252,0.9302,0.9315,0.9325,0,0,0,0,0,0,0.9065,0.9065,0.905,0.9106,0.9116,0.9119,0.9149,0.913,0.9149,0.9143,0.9124,0.9126,0.9175,0.9177,0.9146,0.9233,0.9194,0.9201,0.9229,0.9241,0.925,0.9249,0.9101,0,0,0,0,0,0.9083,0.911,0.9109,0.9159,0.9165,0.9156,0.9171,0.9158,0.9169,0.9173,0.9174,0.9185,0.9209,0.9225,0.9247,0.9306,0.9307,0.9334,0.9344,0.9352,0.9358,0.9388,0.94,0.9273,0.9273,0.9273,0,0,0.912,0.9124,0.9143,0.9169,0.9176,0.9205,0.916,0.9193,0.9214,0.9178,0.922,0.9222,0.9232,0.9284,0.9307,0.9288,0.9393,0.9358,0.9365,0.9367,0.9395,0.9407,0.9418,0.9276,0.9276,0.9275,0,0,0.9203,0.921,0.9251,0.9258,0.9269,0.9262,0.9272,0.9277,0.9277,0.9319,0.9292,0.9316,0.9358,0.9367,0.9377,0.9461,0.944,0.9469,0.9518,0.9548,0.9558,0.9567,0.9596,0.9607,0.9475,0.9475,0.9476,0,0.9249,0.9291,0.9274,0.9309,0.9321,0.9289,0.933,0.9338,0.9355,0.9364,0.9342,0.9393,0.9398,0.9451,0.9472,0.9481,0.9491,0.9468,0.9558,0.9566,0.9574,0.9602,0.9613,0.9479,0.9478,0.9478,0.9478,0,0.9346,0.9376,0.9408,0.9425,0.9441,0.9478,0.9466,0.9484,0.947,0.9466,0.9509,0.9513,0.9535,0.9547,0.9534,0.9598,0.9585,0.9561,0.9521,0.959,0.9616,0.9627,0.9484,0.9483,0.9482,0.9481,0,0,0.9464,0.947,0.9482,0.9489,0.9498,0.952,0.9556,0.9577,0.9592,0.9605,0.9633,0.9669,0.9646,0.9657,0.9644,0.9671,0.9736,0.9643,0.9643,0.966,0.9806,0.9824,0.9837,0.9722,0.9724,0.9725,0.9805,0,0.9546,0.9607,0.9592,0.9653,0.9679,0.9649,0.9679,0.9688,0.9684,0.9706,0.9702,0.9727,0.9695,0.9702,0.9726,0.9723,0.9765,0.9717,0.9748,0.9749,0.9746,0.9851,0.987,0.9945,0.9815,0.9817,0.9818,0,0.965,0.9666,0.9729,0.9732,0.9743,0.9771,0.9788,0.9809,0.9818,0.9813,0.9825,0.9807,0.9841,0.9801,0.9848,0.9815,0.9827,0.9827,0.983,0.9832,0.9788,0.9855,0.9969,0.998,0.9834,0.9833,0.9831,0,0.9728,0.9766,0.9808,0.9815,0.982,0.984,0.9843,0.9849,0.9862,0.9877,0.9885,0.9904,0.9915,0.993,0.9917,0.9889,0.9965,0.9924,0.9962,0.9962,0.9979,0.9979,1.0096,0.9988,0.9987,0.9987,0.9987,0,0.9821,0.9861,0.9843,0.9869,0.9912,0.9894,0.9937,0.9937,0.9942,0.9967,0.9942,0.9965,0.9947,0.9969,0.9959,0.9999,1.0004,1.0001,0.9998,1.0003,1.0003,1.001,1.0005,0.999,0.9989,0.9989,0.9988,0,0.9917,0.9907,0.995,0.9951,0.9952,0.9984,0.9984,1.0007,1.0002,1.0033,1.004,1.0031,1.0055,1.0044,1.007,1.0063,1.0113,1.0104,1.0111,1.0108,1.0146,1.0142,1.0272,1.0287,1.0169,1.017,1.0171,0,0.9976,1.0006,1.0009,1.0024,1.0029,1.0053,1.0066,1.0049,1.0063,1.0074,1.0097,1.0119,1.0136,1.0176,1.0172,1.0191,1.0181,1.0225,1.0184,1.0188,1.0181,1.0179,1.0181,1.0233,1.0235,1.0236,1.0237,0,1.0083,1.0076,1.0096,1.0114,1.013,1.0143,1.0154,1.0168,1.0151,1.0169,1.0193,1.0206,1.0232,1.0254,1.027,1.0273,1.0252,1.0249,1.0259,1.0265,1.0267,1.0266,1.0133,1.0247,1.0246,1.0245,1.0244,1.0244,1.0162,1.0187,1.0192,1.0215,1.0221,1.0232,1.0254,1.025,1.027,1.029,1.0279,1.0307,1.0313,1.0333,1.0338,1.036,1.0343,1.0357,1.036,1.0364,1.0369,1.0264,1.0363,1.0363,1.0363,1.0362,1.0362,0,1.0267,1.0269,1.029,1.0306,1.0323,1.0302,1.0312,1.0328,1.0354,1.0361,1.0378,1.0406,1.0427,1.0423,1.0442,1.046,1.0451,1.0466,1.0464,1.0465,1.0383,1.0373,1.0473,1.0473,1.0473,1.0473,1.0473,1.0473,1.0324,1.0364,1.0357,1.0399,1.0401,1.0429,1.0436,1.0446,1.0452,1.0483,1.0501,1.0498,1.0501,1.052,1.0538,1.0536,1.0544,1.0563,1.0558,1.0482,1.0471,1.046,1.045,1.0565,1.0565,1.0637,1.0638,1.0638]},{"header":{"parameterUnit":"m.s-1","parameterCategory":1,"la1":30.2991,"la2":30.254,"lo1":-89.0895,"lo2":-89.0444,"dy":0.0017,"dx":0.0017,"nx":28,"ny":28,"refTime":"2025-04-04T21:00:00:Z","depth":0,"parameterNumber":3,"parameterNumberName":"V-component_of_WINDS"},"data":[0,0,0,0,0,0,0,0,0,0,0,0,0,0,0,0,0,0,0,0,0,0,0,0,0,0,0,0,0,0,0,0,0,0,0,0,0,0,0,0,0,0,0,0,0,0,0,0,0,0,0,0,0,0,0,0,0,0,7.2163,7.2165,0,7.2359,7.2361,7.2364,7.2383,7.2381,7.2379,7.2377,7.2579,7.2586,7.2593,0,0,0,0,0,0,0,0,0,0,0,0,0,7.1807,7.1813,7.2163,7.2165,7.2168,7.2359,7.2362,7.2364,7.2384,7.2381,7.2379,7.2376,7.2576,7.2585,7.2594,0,0,0,0,0,0,0,0,0,0,0,0,0,7.1978,7.1816,7.2162,7.2201,7.2206,7.2358,7.2362,7.2365,7.2384,7.2381,7.2378,7.2375,7.2574,7.2584,7.2595,7.2723,0,0,7.2628,7.2633,0,0,0,0,0,0,0,0,7.1968,7.1991,7.2192,7.2198,7.2204,7.2344,7.231,7.2485,7.2385,7.2317,7.2377,7.2374,7.2503,7.252,7.2563,7.2732,7.2741,7.2629,7.2636,7.264,7.2643,0,0,0,0,0,0,0,7.1957,7.1983,7.2241,7.2195,7.2203,7.2208,7.2229,7.2343,7.2424,7.2322,7.2324,7.2347,7.2506,7.2552,7.2568,7.2744,7.2629,7.2638,7.2645,7.2649,7.3031,7.3035,0,0,0,0,0,0,7.1937,7.1973,7.2234,7.2246,7.2077,7.2217,7.2241,7.2302,7.2423,7.2439,7.2349,7.2347,7.2535,7.2555,7.2575,7.2735,7.264,7.265,7.2657,7.3028,7.3032,7.3036,0,0,0,0,0,0,7.193,7.1961,7.2226,7.211,7.2145,7.2227,7.2295,7.2308,7.2354,7.2444,7.2459,7.2382,7.2534,7.256,7.2687,7.2742,7.2655,7.2665,7.3023,7.3029,7.3034,7.3054,0,0,0,0,0,0,7.1919,7.1958,7.2006,7.2111,7.2151,7.2334,7.2299,7.2314,7.2373,7.2372,7.2478,7.2493,7.2533,7.267,7.2697,7.2755,7.2674,7.3019,7.3026,7.3032,7.3048,7.3059,7.3068,0,0,0,0,0,7.1907,7.2004,7.2009,7.204,7.2213,7.2337,7.236,7.2404,7.2377,7.2428,7.2486,7.249,7.2731,7.2683,7.2714,7.2776,7.3015,7.3024,7.3032,7.3044,7.3057,7.3068,0,0,0,0,0,0,7.1903,7.2018,7.2025,7.2159,7.2238,7.234,7.2405,7.2416,7.2504,7.25,7.2551,7.2575,7.27,7.2751,7.2695,7.2908,7.2871,7.2885,7.287,7.2883,7.2893,7.2878,7.2683,0,0,0,0,0,7.1918,7.2008,7.2104,7.2213,7.2252,7.2322,7.2377,7.2405,7.2489,7.2522,7.2589,7.2671,7.2766,7.2827,7.2919,7.3056,7.3081,7.3114,7.3124,7.3132,7.3144,7.3222,7.3239,7.3062,7.3062,7.3062,0,0,7.1949,7.2023,7.2077,7.2214,7.2279,7.2372,7.235,7.2449,7.2519,7.2538,7.2662,7.2714,7.2809,7.2942,7.3004,7.2988,7.3198,7.3142,7.3147,7.3156,7.3232,7.3249,7.3264,7.3068,7.3067,7.3066,0,0,7.2054,7.2118,7.2217,7.2283,7.2381,7.2427,7.2451,7.2553,7.2588,7.2714,7.273,7.2815,7.2976,7.3044,7.3099,7.3233,7.3241,7.3261,7.3313,7.3389,7.3403,7.3415,7.3464,7.3481,7.3273,7.3273,7.3273,0,7.208,7.2221,7.2267,7.2366,7.2427,7.2449,7.255,7.2611,7.2735,7.2777,7.2757,7.2962,7.3027,7.3177,7.321,7.3254,7.3284,7.3249,7.3397,7.341,7.3423,7.347,7.3488,7.3275,7.3275,7.3275,7.3274,0,7.225,7.2347,7.2415,7.2535,7.2603,7.2703,7.2765,7.2829,7.2851,7.2899,7.3028,7.3107,7.3217,7.3254,7.3276,7.3409,7.3396,7.3386,7.335,7.3441,7.3486,7.3505,7.3278,7.3277,7.3277,7.3276,0,0,7.2356,7.2501,7.2526,7.2581,7.2692,7.2769,7.2871,7.2978,7.3033,7.3118,7.3205,7.3343,7.3335,7.3398,7.3428,7.3495,7.3598,7.3477,7.348,7.3498,7.3751,7.3758,7.3778,7.3604,7.3607,7.361,7.3743,0,7.2475,7.2656,7.2701,7.2857,7.2948,7.2972,7.3061,7.3139,7.3188,7.3273,7.3327,7.3424,7.3406,7.3444,7.3511,7.3571,7.3649,7.3562,7.3687,7.3691,7.3663,7.3802,7.3809,7.3931,7.3761,7.3764,7.3766,0,7.2637,7.2726,7.2891,7.2992,7.3033,7.3112,7.3215,7.3296,7.3386,7.3417,7.3489,7.3513,7.3622,7.358,7.3731,7.3671,7.3725,7.3762,7.3768,7.3782,7.3734,7.382,7.397,7.3989,7.3795,7.3792,7.379,0,7.27,7.2861,7.2981,7.3028,7.3149,7.3204,7.3257,7.3345,7.3407,7.3498,7.3539,7.3641,7.3697,7.3776,7.3828,7.3792,7.3975,7.3938,7.4005,7.4004,7.4042,7.4039,7.4204,7.4076,7.4075,7.4075,7.4075,0,7.2828,7.2928,7.3012,7.3085,7.3199,7.325,7.3362,7.3415,7.3493,7.3579,7.3605,7.3685,7.3748,7.3837,7.3879,7.3999,7.4023,7.4052,7.4062,7.4051,7.4047,7.4087,7.408,7.408,7.4079,7.4078,7.4077,0,7.2917,7.2977,7.311,7.3214,7.3243,7.3322,7.3412,7.3485,7.3535,7.3643,7.3671,7.375,7.3857,7.3916,7.405,7.4078,7.4212,7.4217,7.4181,7.4186,7.425,7.4244,7.4447,7.4477,7.4328,7.4329,7.433,0,7.2995,7.3073,7.3186,7.3245,7.33,7.3394,7.3459,7.3513,7.3579,7.369,7.375,7.3858,7.3947,7.4117,7.4186,7.4289,7.4298,7.4362,7.4314,7.43,7.4301,7.4296,7.4305,7.4371,7.4372,7.4373,7.4374,0,7.3128,7.3154,7.3245,7.3348,7.3424,7.3508,7.3591,7.3638,7.3706,7.3779,7.3889,7.3958,7.4096,7.4203,7.4312,7.4368,7.4384,7.4389,7.441,7.4399,7.4376,7.4391,7.4205,7.4384,7.4383,7.4382,7.4382,7.4381,7.3215,7.3286,7.3377,7.3479,7.3547,7.3624,7.3699,7.3759,7.3851,7.3967,7.3994,7.411,7.4201,7.4349,7.4408,7.45,7.4488,7.4518,7.4526,7.4533,7.4536,7.4361,7.452,7.452,7.4519,7.4519,7.4519,0,7.335,7.341,7.3503,7.3619,7.3699,7.3707,7.3799,7.3867,7.3968,7.4051,7.4139,7.4266,7.4372,7.445,7.4558,7.4617,7.4627,7.4644,7.464,7.4653,7.454,7.4511,7.4634,7.4634,7.4634,7.4634,7.4634,7.4634,7.343,7.3551,7.3588,7.3744,7.3804,7.3918,7.3971,7.4043,7.411,7.425,7.4338,7.4389,7.4471,7.4586,7.4683,7.4704,7.4743,7.4759,7.478,7.4673,7.4661,7.4649,7.4623,7.4767,7.4767,7.4886,7.4887,7.4888]}]]